Terminal Aerodrome Forecast
Issued by NWS Boston, MA

Home | Current Version | Previous Version | Text Only | Print | Product List | Glossary On
Versions: 1 2 3 4 5 6 7 8 9 10 11 12 13 14 15 16 17 18 19 20 21 22 23 24 25 26 27 28 29 30 31 32 33 34 35 36 37 38 39 40 41
690
FTUS41 KBOX 132323
TAFPVD
TAF
KPVD 132323Z 1400/1424 31017G30KT P6SM SKC
     FM140600 30013G27KT P6SM SKC
     FM142000 31010G18KT P6SM SKC=

USA.gov is the U.S. government's official web portal to all federal, state and local government web resources and services.